This is the latest recevied weather packets stored in our database for station/object IZ5MMH-1. If no packets are shown the sender has not sent any weather packets the latest 10 day(s).
| Time | Temp. | Humidity | Pressure | Rain* | Wind** | Luminosity | Snow |
|---|---|---|---|---|---|---|---|
| 1787674485 | 30.56° C | 49% | 1013.4 hPa | - | - | - | - |
| 1787673885 | 30.56° C | 49% | 1013.3 hPa | - | - | - | - |
| 1787673284 | 30.56° C | 48% | 1013.2 hPa | - | - | - | - |
| 1787672686 | 30.56° C | 50% | 1013.2 hPa | - | - | - | - |
| 1787672085 | 30.56° C | 48% | 1013.3 hPa | - | - | - | - |
| 1787671484 | 31.11° C | 47% | 1013.2 hPa | - | - | - | - |
| 1787670884 | 31.11° C | 47% | 1013 hPa | - | - | - | - |
| 1787670284 | 31.67° C | 47% | 1013 hPa | - | - | - | - |
| 1787669685 | 31.11° C | 48% | 1013 hPa | - | - | - | - |
| 1787669084 | 31.11° C | 47% | 1013 hPa | - | - | - | - |
| 1787668484 | 31.11° C | 48% | 1013 hPa | - | - | - | - |
| 1787667885 | 31.67° C | 47% | 1013.1 hPa | - | - | - | - |
| 1787667285 | 31.67° C | 48% | 1013.1 hPa | - | - | - | - |
| 1787666684 | 31.67° C | 47% | 1012.9 hPa | - | - | - | - |
| 1787666085 | 31.67° C | 47% | 1012.7 hPa | - | - | - | - |
| 1787665484 | 31.67° C | 48% | 1012.8 hPa | - | - | - | - |
| 1787664884 | 31.67° C | 47% | 1012.9 hPa | - | - | - | - |
| 1787664284 | 31.67° C | 46% | 1012.7 hPa | - | - | - | - |
| 1787663684 | 32.22° C | 46% | 1012.7 hPa | - | - | - | - |
| 1787663084 | 32.22° C | 46% | 1012.6 hPa | - | - | - | - |
| 1787662485 | 32.22° C | 47% | 1012.6 hPa | - | - | - | - |
| 1787661884 | 32.78° C | 44% | 1012.7 hPa | - | - | - | - |
| 1787661285 | 32.78° C | 47% | 1012.5 hPa | - | - | - | - |
| 1787660685 | 32.78° C | 46% | 1012.4 hPa | - | - | - | - |
| 1787660085 | 32.78° C | 46% | 1012.2 hPa | - | - | - | - |
* Rain since midnight (hover to see other rain measurements)
** Current wind speed in m/s (hover to see current wind gust speed)